QPF
0.00 0.00 0.00 0.00 0.00 0.00 0.00 0.00 0.00 0.00 0.00 0.00 0.00 0.00 0.00 0.00 0.00 0.00 0.00 0.00 0.00 0.00 0.00 0.00 0.00 0.00 0.00 0.00 0.00 0.00 0.00 0.00 0.00 0.00 0.00 0.00 0.00 0.00 0.00 0.00 0.00 0.00 0.00 0.00 0.00
0.00 0.00 0.00 0.00 0.00 0.00 0.00 0.00 0.00 0.00 0.00 0.00 0.00 0.00 0.00 0.00 0.00 0.00 0.00 0.00 0.00 0.00 0.00 0.00 0.00 0.00 0.00 0.00 0.00 0.00 0.00 0.00 0.00 0.00 0.00 0.00 0.00 0.00 0.00 0.00 0.00 0.00 0.00 0.00 0.00
0.00 0.00 0.00 0.00 0.00 0.00 0.00 0.00 0.00 0.00 0.00 0.00 0.00 0.00 0.00 0.00 0.00 0.00 0.00 0.00 0.00 0.00 0.00 0.00 0.00 0.00 0.00 0.00 0.00 0.00 0.00 0.00 0.00 0.00 0.00 0.00 0.00 0.00 0.00 0.00 0.00 0.00 0.00 0.00 0.00
0.00 0.00 0.00 0.00 0.00 0.00 0.00 0.00 0.00 0.00 0.00 0.00 0.00 0.00 0.00 0.00 0.00 0.00 0.00 0.00 0.00 0.00 0.00 0.00 0.00 0.00 0.00 0.00 0.00 0.00 0.00 0.00 0.00 0.00 0.00 0.00 0.00 0.00 0.00 0.00 0.00 0.00 0.00 0.00 0.00
0.00 0.00 0.00 0.00 0.00 0.00 0.00 0.00 0.00 0.00 0.00 0.00 0.00 0.00 0.00 0.00 0.00 0.00 0.00 0.00 0.00 0.00 0.00 0.00 0.00 0.00 0.00 0.00 0.00 0.00 0.00 0.00 0.00 0.00 0.00 0.00 0.00 0.00 0.00 0.00 0.00 0.00 0.00 0.00 0.00
0.00 0.00 0.00 0.00 0.00 0.00 0.00 0.00 0.00 0.00 0.00 0.00 0.00 0.00 0.00 0.00 0.00 0.00 0.00 0.00 0.00 0.00 0.00 0.00 0.00 0.00 0.00 0.00 0.00 0.00 0.00 0.00 0.00 0.00 0.00 0.00 0.00 0.00 0.00 0.00 0.00 0.00 0.00 0.00 0.00
0.00 0.00 0.00 0.00 0.00 0.00 0.00 0.00 0.00 0.00 0.00 0.00 0.00 0.00 0.00 0.00 0.00 0.00 0.00 0.00 0.00 0.00 0.00 0.00 0.00 0.00 0.00 0.00 0.00 0.00 0.00 0.00 0.00 0.00 0.00 0.00 0.00 0.00 0.00 0.00 0.00 0.00 0.00 0.00 0.00
0.00 0.00 0.00 0.00 0.00 0.00 0.00 0.00 0.00 0.00 0.00 0.00 0.00 0.00 0.00 0.00 0.00 0.00 0.00 0.00 0.00 0.00 0.00 0.00 0.00 0.00 0.00 0.00 0.00 0.00 0.00 0.00 0.00 0.00 0.00 0.00 0.00 0.00 0.00 0.00 0.00 0.00 0.00 0.00 0.00
0.00 0.00 0.00 0.00 0.00 0.00 0.00 0.00 0.00 0.00 0.00 0.00 0.00 0.00 0.00 0.00 0.00 0.00 0.00 0.00 0.00 0.00 0.00 0.00 0.00 0.00 0.00 0.00 0.00 0.00 0.00 0.00 0.00 0.00 0.00 0.00 0.00 0.00 0.00 0.00 0.00 0.00 0.00 0.00 0.00
0.00 0.00 0.00 0.00 0.00 0.00 0.00 0.00 0.00 0.00 0.00 0.00 0.00 0.00 0.00 0.00 0.00 0.00 0.00 0.00 0.00 0.00 0.00 0.00 0.00 0.00 0.00 0.00 0.00 0.00 0.00 0.00 0.00 0.00 0.00 0.00 0.00 0.00 0.00 0.00 0.00 0.00 0.00 0.00 0.00
0.00 0.00 0.00 0.00 0.00 0.00 0.00 0.00 0.00 0.00 0.00 0.00 0.00 0.00 0.00 0.00 0.00 0.00 0.00 0.00 0.00 0.00 0.00 0.00 0.00 0.00 0.00 0.00 0.00 0.00 0.00 0.00 0.00 0.00 0.00 0.00 0.00 0.00 0.00 0.00 0.00 0.00 0.00 0.00 0.00
0.00 0.00 0.00 0.00 0.00 0.00 0.00 0.00 0.00 0.00 0.00 0.00 0.00 0.00 0.00 0.00 0.00 0.00 0.00 0.00 0.00 0.00 0.00 0.00 0.00 0.00 0.00 0.00 0.00 0.00 0.00 0.00 0.00 0.00 0.00 0.00 0.00 0.00 0.00 0.00 0.00 0.00 0.00 0.00 0.00
0.00 0.00 0.00 0.00 0.00 0.00 0.00 0.00 0.00 0.00 0.00 0.00 0.00 0.00 0.00 0.00 0.00 0.00 0.00 0.00 0.00 0.00 0.00 0.00 0.00 0.00 0.00 0.00 0.00 0.00 0.00 0.00 0.00 0.00 0.00 0.00 0.00 0.00 0.00 0.00 0.00 0.00 0.00 0.00 0.00
0.00 0.00 0.00 0.00 0.00 0.00 0.00 0.00 0.00 0.00 0.00 0.00 0.00 0.00 0.00 0.00 0.00 0.00 0.00 0.00 0.00 0.00 0.00 0.00 0.00 0.00 0.00 0.00 0.00 0.00 0.00 0.00 0.00 0.00 0.00 0.00 0.00 0.00 0.00 0.00 0.00 0.00 0.00 0.00 0.00
0.00 0.00 0.00 0.00 0.00 0.00 0.00 0.00 0.00 0.00 0.00 0.00 0.00 0.00 0.00 0.00 0.00 0.00 0.00 0.00 0.00 0.00 0.00 0.00 0.00 0.00 0.00 0.00 0.00 0.00 0.00 0.00 0.00 0.00 0.00 0.00 0.00 0.00 0.00 0.00 0.00 0.00 0.00 0.00 0.00
0.00 0.00 0.00 0.00 0.00 0.00 0.00 0.00 0.00 0.00 0.00 0.00 0.00 0.00 0.00 0.00 0.00 0.00 0.00 0.00 0.00 0.00 0.00 0.00 0.00 0.00 0.00 0.00 0.00 0.00 0.00 0.00 0.00 0.00 0.00 0.00 0.00 0.00 0.00 0.00 0.00 0.00 0.00 0.00 0.00
0.00 0.00 0.00 0.00 0.00 0.00 0.00 0.00 0.00 0.00 0.00 0.00 0.00 0.00 0.00 0.00 0.00 0.00 0.00 0.00 0.00 0.00 0.00 0.00 0.00 0.00 0.00 0.00 0.00 0.00 0.00 0.00 0.00 0.00 0.00 0.00 0.00 0.00 0.00 0.00 0.00 0.00 0.00 0.00 0.00
0.00 0.00 0.00 0.00 0.00 0.00 0.00 0.00 0.00 0.00 0.00 0.00 0.00 0.00 0.00 0.00 0.00 0.00 0.00 0.00 0.00 0.00 0.00 0.00 0.00 0.00 0.00 0.00 0.00 0.00 0.00 0.00 0.00 0.00 0.00 0.00 0.00 0.00 0.00 0.00 0.00 0.00 0.00 0.00 0.00
0.00 0.00 0.00 0.00 0.00 0.00 0.00 0.00 0.00 0.00 0.00 0.00 0.00 0.00 0.00 0.00 0.00 0.00 0.00 0.00 0.00 0.00 0.00 0.00 0.00 0.00 0.00 0.00 0.00 0.00 0.00 0.00 0.00 0.00 0.00 0.00 0.00 0.00 0.00 0.00 0.00 0.00 0.00 0.00 0.00
0.00 0.00 0.00 0.00 0.00 0.00 0.00 0.00 0.00 0.00 0.00 0.00 0.00 0.00 0.00 0.00 0.00 0.00 0.00 0.00 0.00 0.00 0.00 0.00 0.00 0.00 0.00 0.00 0.00 0.00 0.00 0.00 0.00 0.00 0.00 0.00 0.00 0.00 0.00 0.00 0.00 0.00 0.00 0.00 0.00
0.00 0.00 0.00 0.00 0.00 0.00 0.00 0.00 0.00 0.00 0.00 0.00 0.00 0.00 0.00 0.00 0.00 0.00 0.00 0.00 0.00 0.00 0.00 0.00 0.00 0.00 0.00 0.00 0.00 0.00 0.00 0.00 0.00 0.00 0.00 0.00 0.00 0.00 0.00 0.00 0.00 0.00 0.00 0.00 0.00
0.00 0.00 0.00 0.00 0.00 0.00 0.00 0.00 0.00 0.00 0.00 0.00 0.00 0.00 0.00 0.00 0.00 0.00 0.00 0.00 0.00 0.00 0.00 0.00 0.00 0.00 0.00 0.00 0.00 0.00 0.00 0.00 0.00 0.00 0.00 0.00 0.00 0.00 0.00 0.00 0.00 0.00 0.00 0.00 0.00
0.00 0.00 0.00 0.00 0.00 0.00 0.00 0.00 0.00 0.00 0.00 0.00 0.00 0.00 0.00 0.00 0.00 0.00 0.00 0.00 0.00 0.00 0.00 0.00 0.00 0.00 0.00 0.00 0.00 0.00 0.00 0.00 0.00 0.00 0.00 0.00 0.00 0.00 0.00 0.00 0.00 0.00 0.00 0.00 0.00
0.00 0.00 0.00 0.00 0.00 0.00 0.00 0.00 0.00 0.00 0.00 0.00 0.00 0.00 0.00 0.00 0.00 0.00 0.00 0.00 0.00 0.00 0.00 0.00 0.00 0.00 0.00 0.00 0.00 0.00 0.00 0.00 0.00 0.00 0.00 0.00 0.00 0.00 0.00 0.00 0.00 0.00 0.00 0.00 0.00
0.00 0.00 0.00 0.00 0.00 0.00 0.00 0.00 0.00 0.00 0.00 0.00 0.00 0.00 0.00 0.00 0.00 0.00 0.00 0.00 0.00 0.00 0.00 0.00 0.00 0.00 0.00 0.00 0.00 0.00 0.00 0.00 0.00 0.00 0.00 0.00 0.00 0.00 0.00 0.00 0.00 0.00 0.00 0.00 0.00
0.00 0.00 0.00 0.00 0.00 0.00 0.00 0.00 0.00 0.00 0.00 0.00 0.00 0.00 0.00 0.00 0.00 0.00 0.00 0.00 0.00 0.00 0.00 0.00 0.00 0.00 0.00 0.00 0.00 0.00 0.00 0.00 0.00 0.00 0.00 0.00 0.00 0.00 0.00 0.00 0.00 0.00 0.00 0.00 0.00
0.01 0.01 0.01 0.00 0.00 0.00 0.00 0.00 0.00 0.00 0.00 0.00 0.00 0.00 0.00 0.00 0.00 0.00 0.00 0.00 0.00 0.00 0.00 0.00 0.00 0.00 0.00 0.00 0.00 0.00 0.00 0.00 0.00 0.00 0.00 0.00 0.00 0.00 0.00 0.00 0.00 0.00 0.00 0.00 0.00
MSLP
1019.35 1018.94 1018.45 1017.97 1017.48 1017.00 1016.45 1015.90 1015.46 1014.99 1014.57 1014.14 1013.70 1013.28 1012.88 1012.51 1011.66 1011.18 1008.86 1007.52 1007.88 1008.79 1009.05 1008.58 1008.45 1008.04 1007.74 1006.62 1006.17 1005.16 1002.96 1002.12 1002.75 1003.47 1005.14 1006.65 1007.35 1008.46 1009.03 1009.57 1009.89 1010.51 1010.79 1012.27 1013.66
1019.44 1018.94 1018.42 1017.92 1017.40 1016.92 1016.43 1015.81 1015.30 1014.84 1014.35 1013.95 1013.56 1013.12 1012.72 1012.32 1010.70 1008.65 1007.27 1007.52 1007.82 1008.38 1008.23 1007.72 1007.21 1007.16 1006.12 1005.44 1004.98 1004.06 1002.64 1002.45 1002.98 1003.57 1004.72 1006.17 1007.06 1008.14 1008.76 1009.37 1010.18 1010.70 1011.52 1012.81 1013.73
1019.52 1019.00 1018.51 1017.94 1017.38 1016.82 1016.26 1015.75 1015.23 1014.79 1014.22 1013.76 1013.39 1012.99 1012.57 1012.02 1009.49 1006.46 1007.16 1007.42 1007.82 1008.02 1007.25 1006.82 1006.33 1006.20 1005.11 1004.62 1004.10 1003.51 1002.49 1002.87 1003.30 1003.73 1004.78 1006.00 1007.04 1007.96 1008.30 1008.84 1009.79 1010.64 1011.77 1012.90 1013.60
1019.83 1019.13 1018.46 1017.87 1017.36 1016.76 1016.18 1015.57 1015.03 1014.67 1014.22 1013.65 1013.23 1012.82 1012.40 1011.05 1007.84 1006.61 1007.30 1007.50 1008.00 1007.46 1006.90 1006.50 1005.96 1005.16 1004.33 1003.66 1003.75 1003.40 1002.98 1003.34 1003.48 1004.28 1004.88 1005.87 1006.94 1007.61 1008.12 1008.61 1009.51 1010.77 1011.88 1012.70 1013.26
1020.01 1019.37 1018.60 1017.88 1017.14 1016.62 1015.98 1015.32 1014.68 1014.25 1013.92 1013.39 1013.02 1012.70 1011.86 1009.30 1006.66 1006.68 1007.35 1007.73 1007.99 1007.46 1006.45 1005.86 1005.18 1004.46 1003.74 1003.37 1003.51 1003.18 1003.01 1003.44 1003.90 1004.58 1005.03 1006.27 1006.91 1007.50 1008.38 1009.14 1009.92 1010.98 1012.02 1012.54 1012.92
1019.98 1019.40 1018.75 1017.97 1017.18 1016.40 1015.70 1015.00 1014.23 1013.67 1013.39 1012.95 1012.65 1012.64 1010.98 1007.72 1006.14 1006.49 1006.51 1007.09 1006.76 1006.77 1005.97 1005.46 1004.62 1004.12 1003.90 1003.47 1003.26 1003.20 1003.25 1003.45 1004.04 1004.83 1005.67 1005.94 1007.09 1007.54 1008.91 1009.56 1010.23 1011.13 1011.73 1012.23 1012.66
1019.86 1019.24 1018.56 1017.90 1017.10 1016.24 1015.28 1014.62 1013.81 1013.02 1012.55 1012.41 1012.23 1011.81 1009.42 1006.39 1005.91 1006.29 1006.43 1006.30 1006.21 1006.18 1005.54 1005.21 1004.74 1004.40 1003.62 1003.27 1003.66 1003.40 1003.28 1003.74 1004.23 1004.94 1005.45 1005.84 1006.62 1006.95 1008.66 1009.56 1010.34 1010.87 1011.43 1011.90 1012.37
1019.74 1019.00 1018.31 1017.57 1016.74 1015.82 1014.95 1013.99 1013.32 1012.44 1011.97 1011.86 1011.93 1010.78 1007.28 1005.84 1005.88 1006.15 1005.98 1006.00 1006.20 1006.21 1005.69 1005.37 1005.38 1004.48 1003.88 1003.64 1003.32 1002.86 1002.68 1002.63 1004.10 1004.72 1005.57 1005.60 1005.52 1007.18 1008.44 1009.10 1009.78 1010.43 1010.99 1011.60 1012.06
1019.76 1018.91 1018.08 1017.24 1016.36 1015.32 1014.44 1013.48 1012.78 1012.14 1011.95 1011.87 1011.10 1009.46 1006.04 1006.25 1005.60 1004.98 1005.32 1005.21 1005.70 1005.82 1005.74 1005.78 1005.46 1004.03 1003.55 1002.73 1002.04 1001.97 1001.10 1001.43 1003.43 1004.18 1004.98 1005.36 1005.11 1006.94 1008.01 1008.58 1009.15 1009.86 1010.38 1011.00 1011.50
1019.62 1018.85 1017.98 1016.96 1015.97 1014.82 1013.76 1012.74 1012.40 1012.18 1011.70 1011.00 1010.08 1008.76 1005.55 1004.27 1004.37 1004.46 1004.87 1005.01 1005.09 1005.18 1005.40 1005.26 1004.62 1003.45 1002.40 1001.50 1000.30 1000.44 1000.52 1001.02 1002.02 1003.68 1004.34 1004.56 1004.85 1006.32 1007.35 1007.80 1008.32 1008.95 1009.64 1010.14 1010.64
1019.41 1018.72 1017.84 1016.70 1015.64 1014.59 1013.06 1011.40 1011.68 1010.99 1009.78 1007.02 1006.14 1005.03 1004.37 1004.08 1004.47 1004.31 1004.51 1004.65 1004.62 1004.58 1003.85 1004.17 1003.18 1001.79 1001.11 1000.82 1000.08 1000.03 1000.40 1000.59 1001.36 1002.68 1003.56 1003.59 1004.06 1004.76 1006.44 1007.03 1007.39 1008.00 1008.73 1009.22 1009.66
1019.22 1018.38 1017.63 1016.39 1015.34 1014.01 1013.14 1011.01 1012.04 1012.16 1008.98 1006.22 1005.58 1004.85 1004.48 1004.47 1003.52 1003.70 1004.07 1003.74 1003.81 1003.42 1003.14 1003.34 1001.82 1001.19 1001.06 1000.91 1000.60 1000.77 1000.39 1000.22 1001.45 1002.56 1003.09 1002.79 1003.12 1003.74 1004.67 1005.73 1006.12 1006.74 1007.47 1008.12 1008.76
1019.34 1018.48 1017.46 1016.14 1014.78 1013.50 1012.48 1012.11 1012.28 1011.81 1009.14 1004.72 1003.96 1003.47 1003.38 1003.85 1003.04 1002.58 1003.44 1002.98 1002.87 1002.76 1002.28 1001.35 1000.80 1000.80 1000.79 1000.77 1000.81 1000.28 1000.06 1000.06 1000.72 1002.13 1002.59 1002.64 1002.05 1002.27 1002.98 1004.36 1005.16 1005.68 1006.29 1007.01 1007.63
1019.19 1018.55 1017.77 1016.43 1014.39 1013.56 1011.92 1012.24 1012.04 1011.83 1008.02 1003.22 1002.88 1002.02 1002.43 1002.50 1002.15 1001.98 1002.45 1002.25 1002.14 1001.86 1002.08 1001.32 1000.54 1000.51 1000.84 1000.33 1000.39 999.65 1000.03 1000.02 1000.74 1001.59 1001.01 1002.09 1000.43 1000.44 1001.20 1002.68 1003.63 1004.30 1005.01 1005.59 1006.45
1018.89 1018.26 1017.87 1017.57 1015.54 1013.22 1012.43 1012.22 1011.92 1011.18 1005.82 1001.92 1001.54 1001.53 1001.50 1001.07 999.54 1000.82 1001.77 1001.81 1001.22 1001.29 1001.62 1000.59 1000.27 1000.62 1000.15 999.68 1000.04 999.39 999.99 1000.38 1000.75 1001.00 1000.80 1001.22 1001.05 999.86 1000.84 1001.23 1002.01 1002.69 1003.42 1004.18 1004.96
1018.64 1017.96 1017.51 1015.42 1014.95 1013.53 1012.98 1012.14 1011.34 1008.70 1003.15 1000.70 1000.60 1000.70 1000.76 1000.58 1000.00 1000.04 1000.91 1001.38 1001.15 1001.17 1001.57 1000.28 1000.77 1000.42 999.77 999.68 999.82 1000.07 1000.42 1000.68 1000.98 1000.68 1000.22 1000.24 1000.24 998.90 998.80 999.51 1000.21 1001.28 1001.97 1002.78 1003.63
1018.27 1017.48 1017.00 1015.69 1013.27 1013.57 1013.06 1011.13 1008.62 1004.80 1001.69 999.74 999.31 999.43 999.17 999.29 999.44 999.99 999.98 1000.26 999.96 1000.27 1000.12 1000.36 1000.33 1000.22 999.86 999.44 999.89 1000.10 1000.04 1000.14 1000.30 999.86 999.54 999.37 999.57 998.77 998.18 998.55 998.80 999.26 1000.44 1001.48 1002.64
1017.65 1016.60 1015.14 1014.79 1013.98 1013.82 1012.44 1009.94 1005.69 1002.14 1000.57 999.86 999.06 998.65 998.32 998.29 998.67 998.91 999.14 999.13 999.42 999.02 998.45 998.78 999.30 999.35 999.54 998.67 998.94 999.38 998.86 998.38 998.39 998.44 998.53 999.40 998.76 998.21 998.14 998.07 998.09 998.56 999.10 1000.12 1001.00
1017.19 1014.61 1013.86 1013.70 1013.93 1013.69 1011.60 1007.58 1003.38 1001.94 1000.77 999.74 999.13 998.25 997.81 997.72 997.69 998.08 997.88 997.72 997.87 998.07 997.73 997.58 997.56 998.25 998.62 998.83 998.48 998.64 998.20 998.52 998.19 998.02 998.24 997.47 997.72 998.07 997.88 997.58 997.40 997.53 998.16 998.94 999.63
1017.00 1014.67 1013.03 1013.49 1013.49 1012.72 1010.18 1005.96 1003.45 1002.66 1001.86 1000.69 998.98 997.94 997.01 997.08 997.39 997.09 996.97 996.73 996.78 997.34 997.61 997.51 997.35 997.66 998.30 998.56 998.21 997.45 998.50 998.29 998.07 997.63 997.24 997.40 997.06 996.54 996.71 996.76 996.53 996.74 997.13 997.71 998.51
1016.60 1014.04 1013.23 1013.33 1013.10 1011.22 1007.95 1005.63 1004.23 1003.38 1002.83 1001.53 999.75 998.56 997.73 996.63 996.59 996.18 995.83 995.99 996.30 996.74 997.74 997.24 997.42 996.90 997.66 997.33 997.06 998.01 997.66 997.28 997.30 997.34 996.92 996.67 995.90 996.19 996.68 996.57 996.26 996.35 996.50 996.95 997.62
1016.46 1013.40 1013.17 1013.04 1011.52 1009.14 1007.30 1006.26 1005.83 1004.12 1003.21 1002.23 1001.40 1000.32 998.63 997.71 997.14 996.10 995.78 995.78 995.85 996.11 996.79 997.15 997.26 996.62 996.88 997.06 997.14 996.68 996.73 997.08 996.49 996.71 996.55 996.17 995.10 995.26 995.94 996.11 996.22 996.44 996.51 997.28 997.58
1016.06 1014.10 1013.03 1012.76 1010.34 1008.45 1007.73 1007.58 1006.59 1005.22 1003.70 1002.61 1001.58 1000.93 999.93 999.06 998.31 996.94 996.55 996.79 996.87 996.12 996.28 996.96 996.78 996.42 996.45 996.80 997.21 996.40 996.04 996.27 996.60 996.57 995.59 995.86 995.38 995.24 995.58 996.18 996.19 996.40 996.71 997.10 997.79
1016.69 1013.66 1012.09 1011.93 1011.57 1010.67 1009.37 1008.63 1007.01 1006.13 1005.00 1003.76 1002.46 1001.62 1000.85 1000.22 999.45 998.18 997.77 997.88 997.29 996.58 996.86 996.89 996.52 996.01 994.80 994.96 995.81 996.28 995.87 995.99 996.11 995.58 995.44 994.79 995.22 994.79 995.37 995.64 995.63 995.74 996.12 996.90 997.73
1016.52 1014.24 1014.50 1012.02 1011.93 1011.96 1011.12 1009.71 1008.35 1007.17 1005.95 1005.22 1003.79 1002.90 1001.86 1001.01 1000.08 999.42 998.63 998.30 997.84 997.77 997.50 996.89 996.37 996.07 995.95 995.14 994.88 995.00 995.60 995.72 995.65 995.48 994.81 994.78 994.32 994.86 994.94 995.21 995.32 995.36 995.78 996.64 997.35
1016.55 1015.34 1014.79 1013.95 1013.30 1012.50 1011.45 1009.98 1009.29 1008.64 1008.45 1005.99 1005.29 1005.03 1004.01 1002.04 1001.26 1000.34 999.82 998.89 997.92 998.23 997.66 997.34 996.85 996.56 996.11 995.92 995.42 995.00 994.92 994.73 994.84 994.91 994.70 994.49 993.93 994.11 994.88 995.04 995.03 995.36 995.86 996.24 996.78
1016.72 1016.64 1016.31 1014.61 1013.37 1012.66 1011.22 1010.64 1010.48 1010.49 1008.95 1008.37 1008.03 1007.12 1005.15 1004.33 1004.18 1003.06 1001.94 1000.47 999.78 999.21 998.35 998.08 997.28 997.05 996.10 996.13 995.83 994.80 993.40 993.74 994.03 994.29 994.48 994.00 994.29 994.62 994.50 994.92 994.99 995.14 995.41 995.62 995.87
Thickness
5732 5736 5740 5745 5749 5753 5758 5764 5768 5772 5776 5780 5785 5789 5794 5799 5809 5816 5824 5845 5846 5842 5842 5844 5843 5843 5845 5842 5847 5854 5834 5829 5828 5823 5816 5824 5812 5817 5820 5805 5808 5807 5804 5797 5792
5729 5733 5738 5742 5747 5752 5756 5762 5767 5771 5776 5780 5784 5788 5793 5798 5813 5823 5844 5847 5848 5846 5843 5838 5836 5842 5842 5844 5849 5843 5835 5834 5848 5845 5830 5827 5821 5815 5810 5805 5798 5800 5804 5798 5792
5724 5729 5734 5739 5744 5750 5755 5760 5765 5770 5775 5779 5783 5787 5791 5797 5811 5832 5843 5846 5846 5847 5854 5854 5854 5847 5840 5851 5850 5850 5837 5849 5848 5852 5845 5829 5821 5824 5814 5801 5804 5797 5794 5794 5790
5716 5723 5730 5736 5741 5746 5752 5759 5764 5768 5773 5778 5782 5786 5791 5801 5792 5836 5840 5843 5842 5849 5851 5846 5846 5840 5839 5839 5854 5836 5855 5851 5853 5851 5842 5828 5831 5819 5820 5816 5821 5812 5805 5798 5793
5710 5716 5723 5731 5738 5744 5751 5757 5764 5769 5772 5777 5781 5785 5795 5802 5815 5839 5837 5839 5840 5845 5843 5842 5840 5845 5837 5848 5850 5844 5852 5855 5856 5849 5844 5837 5824 5821 5816 5823 5823 5814 5806 5801 5800
5709 5712 5717 5724 5732 5741 5749 5756 5764 5771 5774 5778 5781 5783 5795 5792 5839 5838 5842 5840 5844 5842 5844 5849 5849 5859 5847 5847 5846 5855 5854 5853 5853 5844 5838 5830 5821 5825 5815 5822 5817 5811 5806 5806 5804
5708 5712 5717 5721 5728 5736 5747 5755 5764 5772 5778 5780 5782 5787 5796 5810 5838 5837 5840 5841 5847 5845 5840 5853 5859 5849 5857 5846 5857 5854 5840 5846 5845 5842 5833 5840 5816 5819 5823 5821 5811 5810 5810 5809 5807
5707 5712 5717 5722 5729 5736 5744 5754 5763 5772 5778 5780 5781 5790 5799 5834 5836 5833 5839 5837 5844 5846 5847 5854 5856 5851 5850 5859 5851 5843 5850 5830 5839 5842 5837 5836 5811 5822 5826 5820 5812 5812 5812 5810 5809
5704 5710 5716 5722 5729 5738 5745 5752 5760 5768 5773 5775 5784 5790 5799 5829 5825 5840 5841 5831 5835 5840 5844 5848 5846 5842 5848 5840 5837 5843 5835 5844 5828 5849 5836 5831 5822 5825 5829 5822 5816 5816 5815 5813 5812
5701 5707 5714 5722 5729 5739 5748 5756 5757 5761 5769 5776 5783 5781 5811 5816 5831 5836 5842 5839 5829 5830 5825 5827 5830 5827 5840 5841 5821 5834 5840 5849 5834 5838 5838 5829 5828 5828 5828 5825 5820 5821 5819 5817 5816
5697 5703 5711 5721 5729 5738 5749 5765 5764 5764 5771 5795 5801 5804 5811 5827 5832 5827 5835 5828 5829 5822 5812 5823 5815 5815 5838 5852 5862 5860 5850 5846 5853 5854 5837 5835 5834 5839 5831 5828 5824 5824 5822 5822 5822
5693 5700 5706 5718 5727 5738 5746 5760 5747 5745 5760 5794 5797 5802 5812 5817 5809 5820 5834 5815 5812 5803 5821 5810 5809 5842 5852 5852 5849 5844 5842 5848 5849 5851 5841 5842 5836 5847 5844 5834 5837 5832 5830 5829 5829
5684 5692 5700 5713 5726 5738 5744 5745 5746 5748 5755 5792 5801 5801 5806 5812 5806 5816 5823 5822 5810 5803 5812 5814 5833 5850 5842 5837 5831 5842 5841 5848 5843 5843 5847 5837 5834 5845 5856 5850 5847 5847 5844 5841 5837
5676 5683 5690 5702 5723 5729 5741 5740 5743 5744 5756 5791 5791 5805 5808 5814 5800 5831 5831 5822 5812 5806 5809 5816 5843 5833 5827 5830 5840 5832 5858 5858 5843 5829 5823 5843 5819 5854 5860 5848 5849 5851 5849 5848 5846
5668 5675 5679 5683 5702 5721 5729 5732 5737 5738 5744 5798 5796 5820 5812 5807 5829 5819 5835 5821 5806 5808 5810 5813 5824 5817 5818 5835 5848 5844 5858 5848 5843 5833 5835 5830 5817 5853 5854 5845 5850 5859 5861 5861 5860
5657 5665 5673 5689 5693 5707 5715 5723 5728 5731 5741 5788 5800 5792 5790 5799 5810 5819 5814 5824 5824 5806 5807 5820 5833 5830 5836 5850 5851 5853 5841 5838 5837 5834 5804 5831 5827 5843 5859 5861 5866 5868 5871 5870 5869
5644 5655 5663 5673 5697 5695 5702 5717 5718 5731 5783 5787 5790 5798 5798 5792 5796 5795 5796 5794 5792 5777 5783 5801 5808 5828 5841 5828 5838 5834 5823 5794 5786 5796 5796 5847 5825 5841 5876 5882 5884 5882 5878 5878 5875
5632 5645 5660 5667 5675 5679 5692 5705 5709 5755 5771 5788 5792 5796 5788 5798 5794 5794 5790 5786 5803 5807 5804 5790 5776 5812 5828 5830 5820 5821 5832 5813 5779 5797 5817 5830 5809 5839 5878 5888 5895 5894 5894 5889 5885
5617 5640 5651 5659 5660 5664 5679 5695 5728 5745 5766 5770 5780 5777 5782 5794 5796 5790 5791 5797 5808 5815 5796 5797 5801 5831 5833 5839 5840 5822 5815 5850 5828 5842 5816 5843 5847 5860 5874 5878 5889 5894 5895 5891 5893
5597 5618 5637 5639 5645 5654 5668 5692 5721 5734 5745 5754 5755 5779 5776 5783 5778 5786 5787 5809 5807 5818 5826 5810 5791 5820 5828 5835 5838 5841 5844 5810 5817 5785 5787 5818 5826 5837 5859 5868 5887 5890 5895 5899 5900
5578 5601 5615 5618 5627 5644 5663 5684 5701 5718 5726 5730 5748 5759 5770 5780 5785 5787 5792 5808 5814 5811 5813 5815 5804 5807 5818 5807 5813 5809 5813 5827 5837 5827 5799 5798 5823 5872 5862 5873 5880 5891 5901 5903 5903
5549 5578 5589 5596 5614 5642 5654 5666 5668 5692 5711 5716 5726 5736 5753 5767 5768 5782 5784 5797 5818 5815 5791 5808 5801 5788 5797 5827 5836 5835 5827 5828 5811 5802 5821 5825 5837 5890 5879 5882 5885 5887 5895 5897 5902
5522 5542 5562 5571 5594 5620 5633 5633 5649 5664 5686 5698 5707 5724 5742 5742 5740 5769 5778 5790 5797 5805 5795 5801 5784 5773 5783 5800 5812 5811 5830 5833 5832 5834 5818 5802 5821 5886 5879 5875 5883 5881 5888 5893 5892
5492 5520 5541 5549 5561 5571 5588 5602 5622 5646 5660 5677 5691 5710 5716 5719 5737 5743 5753 5768 5786 5798 5792 5798 5789 5782 5786 5802 5813 5797 5814 5823 5820 5809 5815 5822 5831 5861 5863 5867 5879 5885 5890 5889 5887
5476 5496 5493 5523 5527 5534 5551 5572 5588 5607 5635 5647 5661 5678 5693 5699 5716 5722 5744 5751 5770 5765 5781 5790 5769 5788 5796 5813 5816 5813 5807 5809 5807 5819 5809 5828 5835 5850 5864 5868 5877 5886 5888 5883 5882
5460 5472 5479 5487 5497 5508 5521 5548 5559 5574 5587 5621 5629 5634 5656 5681 5698 5707 5724 5736 5748 5759 5765 5777 5759 5777 5772 5795 5801 5795 5807 5816 5817 5820 5823 5831 5833 5869 5869 5875 5873 5877 5877 5877 5880
5444 5446 5452 5470 5483 5492 5510 5520 5529 5540 5566 5579 5589 5603 5632 5650 5664 5681 5698 5714 5722 5731 5743 5749 5759 5752 5750 5780 5782 5769 5804 5813 5818 5824 5823 5811 5832 5853 5853 5859 5867 5873 5877 5878 5885